This demonstration page uses our WeatherBlox Daily Observations layout. Learn more.

Left ArrowRight Arrow

Hourly Observations for March 26, 2020

Temp ( °F °C ) Dew Point ( °F °C ) Humidity (%) Winds ( mph kmh ) Pressure ( in mb ) Visibility ( mi km ) Precip ( " mm )
12:53 am 00:53 Clear 39 3.9 37 2.8 93 93 NW 6 9 30.00 1016 10 16 0.00 0.00
1:53 am 01:53 Clear 39 3.9 36 2.2 89 89 WNW 5 7 30.01 1016 10 16 0.00 0.00
2:53 am 02:53 Clear 36 2.2 34 1.1 93 93 ESE 5 7 30.01 1016 10 16 0.00 0.00
3:53 am 03:53 Clear 37 2.8 35 1.7 93 93 Calm 30.01 1016 10 16 0.00 0.00
4:53 am 04:53 Clear 37 2.8 33 0.6 86 86 N 3 6 30.01 1016 10 16 0.00 0.00
5:53 am 05:53 Clear 35 1.7 31 -0.6 85 85 Calm 30.03 1017 10 16 0.00 0.00
6:53 am 06:53 Clear 35 1.7 31 -0.6 85 85 Calm 30.04 1017 10 16 0.00 0.00
7:53 am 07:53 Sunny 36 2.2 32 0 86 86 Calm 30.06 1018 10 16 0.00 0.00
8:53 am 08:53 Sunny 47 8.3 32 0 56 56 N 8 13 30.07 1018 10 16 0.00 0.00
9:53 am 09:53 Sunny 50 10 30 -1.1 46 46 NNE 18 30 30.08 1019 10 16 0.00 0.00
10:53 am 10:53 Sunny 53 11.7 30 -1.1 41 41 NE 9 15 30.08 1019 10 16 0.00 0.00
11:53 am 11:53 Sunny 55 12.8 29 -1.7 37 37 NE 8 13 30.07 1018 10 16 0.00 0.00
12:53 pm 12:53 Sunny 57 13.9 29 -1.7 34 34 ENE 9 15 30.05 1018 10 16 0.00 0.00
1:53 pm 13:53 Sunny 58 14.4 27 -2.8 31 31 VRB 6 9 30.03 1017 10 16 0.00 0.00
2:53 pm 14:53 Sunny 60 15.6 27 -2.8 28 28 SE 3 6 30.00 1016 10 16 0.00 0.00
3:53 pm 15:53 Sunny 60 15.6 25 -3.9 26 26 ENE 8 13 29.98 1015 10 16 0.00 0.00
4:53 pm 16:53 Sunny 61 16.1 24 -4.4 24 24 VRB 6 9 29.97 1015 10 16 0.00 0.00
5:53 pm 17:53 Sunny 60 15.6 19 -7.2 20 20 VRB 3 6 29.96 1015 10 16 0.00 0.00
6:53 pm 18:53 Sunny 58 14.4 23 -5 26 26 S 7 11 29.96 1015 10 16 0.00 0.00
7:53 pm 19:53 Clear 52 11.1 27 -2.8 38 38 SW 3 6 29.97 1015 10 16 0.00 0.00
8:53 pm 20:53 Clear 48 8.9 29 -1.7 48 48 Calm 29.98 1015 10 16 0.00 0.00
9:53 pm 21:53 Clear 45 7.2 29 -1.7 54 54 Calm 29.99 1016 10 16 0.00 0.00
10:53 pm 22:53 Clear 45 7.2 30 -1.1 56 56 NNE 3 6 30.01 1016 10 16 0.00 0.00
11:53 pm 23:53 Clear 41 5 31 -0.6 67 67 Calm 30.01 1016 10 16 0.00 0.00

Powered by AerisWeather